Roseburg, OR

10:02 AM PST on December 16, 2017 (GMT -0800)
Roseburg Regional

Weather History for KRBG - May, 2014

Change the Weather History Date:

Monday, May 19, 2014

  Actual Average Record
Temperature  
Mean Temperature 62 °F 59 °F  
Max Temperature 71 °F 71 °F 94 °F (2008)
Min Temperature 53 °F 48 °F 36 °F (1941)
Degree Days  
Heating Degree Days 3 7  
Month to date heating degree days 97 151  
Since 1 July heating degree days 3711 3915  
Cooling Degree Days 0 1  
Month to date cooling degree days 28 7  
Year to date cooling degree days 34 8  
Growing Degree Days 12 (Base 50)    
Moisture  
Dew Point 47 °F    
Average Humidity 60    
Maximum Humidity 83    
Minimum Humidity 37    
Precipitation  
Precipitation 0.06 in 0.07 in 0.49 in (1998)
Month to date precipitation 1.28 1.47  
Year to date precipitation 15.29 16.83  
Snow  
Snow 0.00 in - - ()
Month to date snowfall  
Since 1 July snowfall 0.0  
Snow Depth -    
Sea Level Pressure  
Sea Level Pressure 29.96 in    
Wind  
Wind Speed 3 mph (NNW)    
Max Wind Speed 15 mph    
Max Gust Speed 21 mph    
Visibility 9 miles    
Events Rain    
T = Trace of Precipitation, MM = Missing Value Source: NWS Daily Summary

Daily Weather History Graph

Daily Weather History Graph

Search for Another Location

Airport or City:

Trip Planner

Search our weather history database for the weather conditions in past years. The results will help you decide how hot, cold, wet, or windy it might be!

Date:

Astronomy

May. 19, 2014 Rise Set
Actual Time 5:45 AM PDT 8:34 PM PDT
Civil Twilight 5:12 AM PDT 9:08 PM PDT
Nautical Twilight 4:30 AM PDT 9:50 PM PDT
Astronomical Twilight 3:41 AM PDT 10:39 PM PDT
Moon 12:24 AM PDT (5/19) 10:52 AM PDT (5/19)
Length of Visible Light 15h 56m
Length of Day
14h 49m
Waning Gibbous, 70% of the Moon is Illuminated
May 19
Waning Gibbous
May 21
Last Quarter
May 28
New
Jun 5
First Quarter
Jun 12
Full

Hourly Weather History & Observations

Time (PDT) Temp. Dew Point Humidity Pressure Visibility Wind Dir Wind Speed Gust Speed Precip Events Conditions
12:53 AM 55.0 °F 46.0 °F 72% 29.97 in 10.0 mi Calm Calm - N/A   Overcast
1:53 AM 55.0 °F 46.0 °F 72% 29.97 in 10.0 mi Calm Calm - N/A   Overcast
2:53 AM 54.0 °F 46.0 °F 75% 29.96 in 10.0 mi Calm Calm - N/A   Overcast
3:53 AM 54.0 °F 46.0 °F 75% 29.95 in 10.0 mi Calm Calm - N/A   Overcast
4:53 AM 54.0 °F 46.9 °F 77% 29.95 in 10.0 mi NNE 3.5 mph - N/A   Overcast
6:53 AM 54.0 °F 46.9 °F 77% 29.96 in 10.0 mi Calm Calm - N/A   Mostly Cloudy
7:53 AM 55.9 °F 48.0 °F 75% 29.96 in 10.0 mi Calm Calm - N/A   Overcast
8:53 AM 57.9 °F 46.9 °F 67% 29.96 in 10.0 mi Calm Calm - N/A   Overcast
9:40 AM 59.0 °F 46.9 °F 64% 29.96 in 10.0 mi Variable 3.5 mph - N/A   Overcast
9:51 AM 57.2 °F 46.4 °F 67% 29.96 in 10.0 mi Calm Calm - N/A   Overcast
9:53 AM 57.9 °F 46.0 °F 65% 29.96 in 10.0 mi Calm Calm - N/A   Overcast
10:21 AM 60.1 °F 46.9 °F 62% 29.96 in 10.0 mi Calm Calm - N/A   Overcast
10:43 AM 59.0 °F 46.0 °F 62% 29.96 in 10.0 mi Calm Calm - N/A   Mostly Cloudy
11:53 AM 63.0 °F 43.0 °F 48% 29.96 in 10.0 mi Variable 4.6 mph - N/A   Clear
12:53 PM 64.9 °F 44.1 °F 47% 29.96 in 10.0 mi Variable 4.6 mph - N/A   Mostly Cloudy
1:53 PM 66.9 °F 41.0 °F 39% 29.94 in 10.0 mi Calm Calm - N/A   Clear
2:53 PM 66.9 °F 42.1 °F 40% 29.93 in 10.0 mi NNW 9.2 mph - N/A   Mostly Cloudy
3:53 PM 70.0 °F 43.0 °F 38% 29.92 in 10.0 mi North 10.4 mph 18.4 mph N/A   Mostly Cloudy
4:53 PM 69.1 °F 44.1 °F 40% 29.92 in 10.0 mi NW 9.2 mph - N/A   Mostly Cloudy
5:53 PM 66.0 °F 46.9 °F 50% 29.93 in 10.0 mi WNW 9.2 mph 18.4 mph N/A   Scattered Clouds
6:43 PM 62.1 °F 51.1 °F 67% 29.94 in 1.8 mi WNW 5.8 mph 16.1 mph 0.05 in Rain Heavy Rain
6:49 PM 62.6 °F 51.8 °F 68% 29.95 in 3.0 mi Variable 3.5 mph - 0.06 in Rain Light Rain
6:53 PM 62.1 °F 51.1 °F 67% 29.95 in 6.0 mi West 3.5 mph - 0.06 in Rain Light Rain
7:53 PM 63.0 °F 50.0 °F 63% 29.97 in 10.0 mi NW 4.6 mph - 0.00 in   Scattered Clouds
8:53 PM 61.0 °F 48.9 °F 64% 29.99 in 10.0 mi NW 4.6 mph - N/A   Clear
9:53 PM 57.0 °F 50.0 °F 77% 30.01 in 10.0 mi NE 3.5 mph - N/A   Clear
11:53 PM 54.0 °F 48.9 °F 83% 30.03 in 10.0 mi Calm Calm - N/A   Clear